DB6TOM Weather Reports


Display with metric or nautical units.
time (UTC)temp
F
wind
direction
speed
MPH
gust
MPH
rain 1hr
in
rain 24hr
in
rain mn
in
humidity
%
barometer
mb
20260506033220 51 262 1.0 3.0 0.00 0.00 0.00 96 1003.1
20260506032218 52 49 1.0 3.0 0.00 0.00 0.00 96 1003.0
20260506031719 51 212 1.0 5.0 0.00 0.00 0.00 96 1003.1
20260506031217 51 235 0.0 5.0 0.00 0.00 0.00 97 1003.1
20260506030721 51 221 2.0 5.0 0.00 0.00 0.00 97 1003.3
20260506030216 51 141 2.0 3.0 0.00 0.00 0.00 97 1003.0
20260506025722 51 228 2.0 3.0 0.00 0.00 0.00 97 1003.2
20260506025215 51 152 1.0 4.0 0.00 0.00 0.00 98 1003.3
20260506024213 51 137 2.0 3.0 0.00 0.00 0.00 98 1003.3
20260506023936 51 135 2.0 4.0 0.00 0.00 0.00 98 1003.4
20260506023213 51 161 3.0 4.0 0.00 0.00 0.00 98 1003.4
20260506022716 51 216 1.0 4.0 0.00 0.00 0.00 98 1003.3
20260506022211 51 55 1.0 5.0 0.00 0.00 0.00 98 1003.4
20260506021714 51 176 5.0 5.0 0.00 0.00 0.00 99 1003.5
20260506021211 51 171 2.0 4.0 0.00 0.00 0.00 99 1003.4
20260506020711 51 249 2.0 4.0 0.00 0.00 0.00 99 1003.3
20260506020209 51 153 2.0 4.0 0.00 0.00 0.00 99 1003.4
20260506015711 51 152 1.0 5.0 0.00 0.00 0.00 99 1003.4
20260506015209 51 131 4.0 5.0 0.00 0.00 0.00 99 1003.4
20260506014709 51 163 3.0 5.0 0.00 0.00 0.00 99 1003.4
20260506014207 51 153 3.0 4.0 0.00 0.00 0.00 99 1003.5
20260506013708 51 108 2.0 4.0 0.00 0.00 0.00 99 1003.6
20260506013206 51 45 1.0 4.0 0.00 0.00 0.00 99 1003.6
20260506012707 51 119 3.0 5.0 0.00 0.00 0.00 99 1003.8
20260506012205 51 141 3.0 5.0 0.00 0.00 0.00 99 1003.7
20260506011706 51 178 3.0 5.0 0.00 0.00 0.00 99 1003.7
20260506011203 51 134 2.0 6.0 0.00 0.00 0.00 99 1003.6
20260506010704 51 132 2.0 6.0 0.00 0.00 0.00 99 1003.7
20260506010203 51 140 5.0 5.0 0.00 0.00 0.00 99 1003.9
20260506005703 51 150 4.0 5.0 0.00 0.00 0.00 99 1003.9
20260506005202 51 152 2.0 5.0 0.00 0.00 0.00 99 1003.9
20260506004702 51 115 4.0 5.0 0.00 0.00 0.00 99 1003.9
20260506004201 51 136 2.0 5.0 0.00 0.00 0.00 99 1003.8
20260506003919 51 96 3.0 5.0 0.00 0.00 0.00 99 1004.1
20260506003424 51 131 2.0 5.0 0.00 0.00 0.00 98 1003.9
20260506002703 51 181 2.0 5.0 0.00 0.00 0.00 98 1004.2
20260506002159 51 122 4.0 5.0 0.00 0.00 0.00 98 1004.1
20260506001659 51 123 2.0 4.0 0.00 0.00 0.00 98 1004.4
20260506001419 51 108 2.0 5.0 0.00 0.00 0.00 98 1004.3
20260506000658 51 130 3.0 5.0 0.00 0.00 0.00 98 1004.6
20260506000156 51 165 3.0 5.0 0.00 0.00 0.00 98 1004.5
20260505235657 51 143 2.0 5.0 0.00 0.00 0.00 98 1004.6
20260505235155 51 141 4.0 5.0 0.00 0.00 0.00 98 1004.6
20260505234920 51 119 2.0 5.0 0.00 0.00 0.00 98 1004.6
20260505234153 51 152 1.0 5.0 0.00 0.00 0.00 98 1004.6
20260505233927 51 43 3.0 5.0 0.00 0.00 0.00 98 1004.5
20260505233152 51 96 2.0 5.0 0.00 0.00 0.00 98 1004.6
20260505232653 51 167 2.0 5.0 0.00 0.00 0.00 98 1004.9
20260505232151 51 79 3.0 6.0 0.00 0.00 0.00 98 1004.8
20260505231913 51 165 3.0 7.0 0.00 0.00 0.00 98 1004.8
20260505231150 51 183 6.0 7.0 0.00 0.00 0.00 98 1004.8
20260505230651 51 133 4.0 6.0 0.00 0.00 0.00 98 1004.9
20260505230411 51 155 3.0 8.0 0.00 0.00 0.00 98 1004.8
20260505225917 51 285 2.0 8.0 0.00 0.00 0.00 98 1004.8
20260505225406 51 177 5.0 6.0 0.00 0.00 0.00 98 1004.7
20260505224649 51 119 1.0 5.0 0.00 0.00 0.00 98 1004.6
20260505224147 51 123 2.0 5.0 0.00 0.00 0.00 98 1004.7
20260505223648 51 62 3.0 6.0 0.00 0.00 0.00 98 1004.7
20260505223146 51 146 1.0 6.0 0.00 0.00 0.00 97 1004.7
20260505222646 51 162 1.0 5.0 0.00 0.00 0.00 97 1004.6
20260505222144 51 141 2.0 4.0 0.00 0.00 0.00 97 1004.4
20260505221645 51 111 2.0 3.0 0.00 0.00 0.00 97 1004.4
20260505221143 51 131 2.0 3.0 0.00 0.00 0.00 97 1004.6
20260505220645 51 152 1.0 7.0 0.00 0.00 0.00 97 1004.5
20260505220410 51 122 3.0 7.0 0.00 0.00 0.00 97 1004.6
20260505215643 51 145 4.0 5.0 0.00 0.00 0.00 97 1004.8
20260505215142 51 153 3.0 4.0 0.00 0.00 0.00 97 1004.8
20260505214643 51 98 1.0 3.0 0.00 0.00 0.00 97 1005.0
20260505214140 51 130 1.0 3.0 0.00 0.00 0.00 97 1005.3
20260505213641 51 114 2.0 4.0 0.00 0.00 0.00 97 1005.3
20260505213139 51 128 2.0 4.0 0.00 0.00 0.00 97 1005.6
20260505212641 51 159 3.0 3.0 0.00 0.00 0.00 97 1005.6
20260505212138 51 97 2.0 3.0 0.00 0.00 0.00 96 1005.7
20260505211638 52 101 2.0 4.0 0.00 0.00 0.00 96 1005.8
20260505211410 52 122 3.0 4.0 0.00 0.00 0.00 96 1005.9
20260505210637 52 143 2.0 2.0 0.00 0.00 0.00 95 1006.0
20260505210354 52 127 1.0 2.0 0.00 0.00 0.00 95 1006.1
20260505205636 52 172 0.0 4.0 0.00 0.00 0.00 95 1005.9
20260505205134 52 175 1.0 7.0 0.00 0.00 0.00 94 1006.1
20260505204636 53 147 1.0 10.0 0.00 0.00 0.00 94 1006.3
20260505204133 53 334 2.0 10.0 0.00 0.00 0.00 95 1006.6
20260505203635 54 158 4.0 9.0 0.00 0.00 0.00 94 1006.1
20260505203133 54 169 3.0 5.0 0.00 0.00 0.00 95 1005.7
20260505202633 55 225 0.0 4.0 0.00 0.00 0.00 96 1005.8
20260505202132 55 320 0.0 3.0 0.00 0.00 0.00 96 1005.6
20260505201633 55 224 0.0 2.0 0.00 0.00 0.00 95 1005.7
20260505200633 55 219 1.0 3.0 0.00 0.00 0.00 95 1005.0
20260505200129 55 264 0.0 5.0 0.00 0.00 0.00 93 1004.8
20260505195631 55 129 0.0 6.0 0.00 0.00 0.00 93 1004.7
20260505195127 55 100 2.0 9.0 0.00 0.00 0.00 92 1004.6
20260505194628 55 140 4.0 9.0 0.00 0.00 0.00 92 1004.5
20260505194127 55 112 4.0 9.0 0.00 0.00 0.00 92 1004.3
20260505193854 55 87 7.0 8.0 0.00 0.00 0.00 92 1004.3
20260505193125 55 92 2.0 10.0 0.00 0.00 0.00 92 1004.5
20260505192626 55 102 4.0 10.0 0.00 0.00 0.00 92 1004.2
20260505192124 55 66 4.0 11.0 0.00 0.00 0.00 92 1004.1
20260505191626 55 80 4.0 11.0 0.00 0.00 0.00 92 1004.1
20260505191123 55 357 1.0 7.0 0.00 0.00 0.00 91 1004.3
20260505190625 55 80 2.0 7.0 0.00 0.00 0.00 90 1004.5
20260505190122 55 84 6.0 6.0 0.00 0.00 0.00 91 1004.6
20260505185858 55 62 2.0 6.0 0.00 0.00 0.00 91 1004.6
20260505184622 56 153 1.0 6.0 0.00 0.00 0.00 90 1004.6
20260505184122 57 126 2.0 5.0 0.00 0.00 0.00 89 1004.5
20260505183847 57 101 2.0 6.0 0.00 0.00 0.00 87 1004.5
20260505183119 58 95 2.0 6.0 0.00 0.00 0.00 85 1004.6
20260505182620 58 131 1.0 6.0 0.00 0.00 0.00 83 1004.7
20260505182118 58 132 3.0 4.0 0.00 0.00 0.00 82 1004.7
20260505181619 58 139 4.0 5.0 0.00 0.00 0.00 82 1004.7
20260505181117 58 142 2.0 5.0 0.00 0.00 0.00 82 1004.6
20260505180619 58 88 3.0 5.0 0.00 0.00 0.00 81 1004.6
20260505180115 58 96 1.0 5.0 0.00 0.00 0.00 81 1004.5
20260505175616 58 91 3.0 5.0 0.00 0.00 0.00 81 1004.7
20260505175339 59 89 2.0 7.0 0.00 0.00 0.00 80 1004.3
20260505174615 59 94 1.0 7.0 0.00 0.00 0.00 80 1004.2
20260505174113 59 79 2.0 6.0 0.00 0.00 0.00 81 1004.5
20260505173615 59 128 1.0 10.0 0.00 0.00 0.00 81 1004.4
20260505173335 59 95 2.0 10.0 0.00 0.00 0.00 81 1004.4
20260505172615 59 47 6.0 8.0 0.00 0.00 0.00 80 1004.4
20260505172111 60 106 3.0 8.0 0.00 0.00 0.00 80 1004.8
20260505171835 60 83 2.0 6.0 0.00 0.00 0.00 80 1004.8
20260505171110 60 71 3.0 7.0 0.00 0.00 0.00 80 1005.1
20260505170611 60 125 5.0 8.0 0.00 0.00 0.00 80 1005.1
20260505170108 60 114 3.0 8.0 0.00 0.00 0.00 79 1005.2
20260505165108 60 139 3.0 6.0 0.00 0.00 0.00 79 1005.4
20260505164608 61 96 2.0 6.0 0.00 0.00 0.00 78 1005.3
20260505164107 61 114 2.0 7.0 0.00 0.00 0.00 78 1005.3
20260505163607 61 63 5.0 9.0 0.00 0.00 0.00 77 1005.4
20260505163326 61 87 1.0 9.0 0.00 0.00 0.00 77 1005.2
20260505162605 61 118 2.0 5.0 0.00 0.00 0.00 77 1005.4
20260505162321 61 66 3.0 6.0 0.00 0.00 0.00 76 1005.4
20260505161604 61 73 2.0 9.0 0.00 0.00 0.00 76 1005.4
20260505161103 61 117 4.0 9.0 0.00 0.00 0.00 76 1005.3
20260505160604 61 125 6.0 7.0 0.00 0.00 0.00 75 1005.6
20260505160329 61 80 1.0 5.0 0.00 0.00 0.00 75 1005.5
20260505153058 62 109 4.0 5.0 0.00 0.00 0.00 75 1005.6
20260505152559 62 115 2.0 5.0 0.00 0.00 0.00 75 1005.8
20260505152057 62 117 2.0 7.0 0.00 0.00 0.00 75 1005.7
20260505151559 62 91 2.0 7.0 0.00 0.00 0.00 74 1005.7
20260505151056 62 73 1.0 7.0 0.00 0.00 0.00 73 1006.1
20260505150557 62 108 3.0 8.0 0.00 0.00 0.00 73 1006.1
20260505140549 64 25 3.0 6.0 0.00 0.00 0.00 71 1006.5
20260505125039 63 112 2.0 8.0 0.00 0.00 0.00 78 1006.7
20260505124759 63 98 2.0 8.0 0.00 0.00 0.00 77 1006.8
20260505124039 62 75 2.0 8.0 0.00 0.00 0.00 77 1006.7
20260505123540 62 53 6.0 7.0 0.00 0.00 0.00 77 1006.7
20260505123037 62 96 2.0 6.0 0.00 0.00 0.00 79 1006.9
20260505122538 62 103 6.0 7.0 0.00 0.00 0.00 79 1006.9
20260505122036 62 117 5.0 7.0 0.00 0.00 0.00 79 1007.0
20260505121537 62 136 3.0 6.0 0.00 0.00 0.00 77 1007.1
20260505121035 62 91 2.0 6.0 0.00 0.00 0.00 80 1007.1
20260505120536 62 144 1.0 5.0 0.00 0.00 0.00 80 1006.9
20260505120034 62 72 2.0 5.0 0.00 0.00 0.00 79 1007.2
20260505115757 62 164 2.0 8.0 0.00 0.00 0.00 81 1007.1
20260505114534 62 40 2.0 9.0 0.00 0.00 0.00 81 1007.3
20260505114032 63 44 6.0 7.0 0.00 0.00 0.00 78 1007.3
20260505113533 62 184 1.0 5.0 0.00 0.00 0.00 82 1007.3
20260505113252 61 116 1.0 6.0 0.00 0.00 0.00 85 1007.1
20260505112752 61 64 3.0 6.0 0.00 0.00 0.00 84 1007.4
20260505112029 60 130 1.0 5.0 0.00 0.00 0.00 84 1007.1
20260505111757 60 64 2.0 5.0 0.00 0.00 0.00 84 1007.3
20260505111028 60 34 0.0 5.0 0.00 0.00 0.00 85 1007.4
20260505110530 60 338 2.0 5.0 0.00 0.00 0.00 85 1007.7
20260505101748 59 114 1.0 3.0 0.00 0.00 0.00 88 1008.1
20260505101021 58 291 0.0 4.0 0.00 0.00 0.00 89 1008.0
20260505100751 58 169 2.0 4.0 0.00 0.00 0.00 88 1007.8
20260505100020 58 356 0.0 2.0 0.00 0.00 0.00 89 1008.0
20260505095241 58 231 0.0 2.0 0.00 0.00 0.00 89 1008.1
20260505094523 58 188 1.0 2.0 0.00 0.00 0.00 90 1008.0
20260505094018 57 63 0.0 2.0 0.00 0.00 0.00 90 1008.0
20260505093523 57 129 0.0 5.0 0.00 0.00 0.00 90 1007.9
20260505093017 57 123 0.0 5.0 0.00 0.00 0.00 89 1007.9
20260505092518 57 116 0.0 2.0 0.00 0.00 0.00 90 1008.0
20260505092243 57 91 1.0 3.0 0.00 0.00 0.00 89 1008.1
20260505091520 57 46 0.0 3.0 0.00 0.00 0.00 89 1008.1
20260505091015 57 150 1.0 6.0 0.00 0.00 0.00 89 1008.2
20260505090518 57 121 2.0 6.0 0.00 0.00 0.00 89 1008.0
20260505090014 57 115 3.0 6.0 0.00 0.00 0.00 89 1008.1
20260505085515 57 109 2.0 6.0 0.00 0.00 0.00 88 1008.1
20260505085013 57 96 3.0 6.0 0.00 0.00 0.00 88 1008.4
20260505084515 57 141 2.0 6.0 0.00 0.00 0.00 90 1008.1
20260505084012 57 100 4.0 6.0 0.00 0.00 0.00 92 1008.5
20260505083512 56 60 3.0 6.0 0.00 0.00 0.00 91 1008.3
20260505083230 56 123 2.0 6.0 0.00 0.00 0.00 91 1008.4
20260505082511 56 97 2.0 4.0 0.00 0.00 0.00 92 1008.3
20260505082009 56 179 2.0 4.0 0.00 0.00 0.00 91 1008.2
20260505081510 55 156 0.0 4.0 0.00 0.00 0.00 93 1008.4
20260505081008 55 122 1.0 3.0 0.00 0.00 0.00 93 1008.5
20260505080512 55 184 0.0 4.0 0.00 0.00 0.00 94 1008.3
20260505080007 55 171 2.0 4.0 0.00 0.00 0.00 94 1008.3
20260505075508 55 177 0.0 4.0 0.00 0.00 0.00 94 1008.2
20260505075006 55 147 2.0 5.0 0.00 0.00 0.00 94 1008.4
20260505074507 55 126 3.0 5.0 0.00 0.00 0.00 94 1008.4
20260505074233 55 145 4.0 5.0 0.00 0.00 0.00 94 1008.5
20260505073506 55 131 3.0 4.0 0.00 0.00 0.00 94 1008.6
20260505073228 54 223 1.0 4.0 0.00 0.00 0.00 95 1008.6
20260505072504 54 186 2.0 3.0 0.00 0.00 0.00 96 1008.4
20260505072219 54 44 2.0 3.0 0.00 0.00 0.00 96 1008.4
20260505071001 54 229 0.0 4.0 0.00 0.00 0.00 96 1008.5
20260505070502 53 114 2.0 4.0 0.00 0.00 0.00 96 1008.5
20260505070000 53 137 3.0 3.0 0.00 0.00 0.00 96 1008.5
20260505065501 53 131 2.0 3.0 0.00 0.00 0.00 97 1008.4
20260505065223 53 283 1.0 2.0 0.00 0.00 0.00 97 1008.6
20260505064500 53 141 0.0 3.0 0.00 0.00 0.00 96 1008.7
20260505063958 53 127 2.0 3.0 0.00 0.00 0.00 96 1008.3
20260505063459 54 229 1.0 3.0 0.00 0.00 0.00 96 1008.6
20260505062957 53 155 2.0 3.0 0.00 0.00 0.00 96 1008.7
20260505062457 53 19 1.0 3.0 0.00 0.00 0.00 96 1008.7
20260505061955 53 109 0.0 4.0 0.00 0.00 0.00 97 1008.9
20260505061456 53 122 2.0 4.0 0.00 0.00 0.00 97 1008.8
20260505060954 53 133 1.0 3.0 0.00 0.00 0.00 97 1008.7
20260505055954 53 110 2.0 3.0 0.00 0.00 0.00 97 1009.1
20260505055454 53 127 1.0 3.0 0.00 0.00 0.00 97 1009.1
20260505054952 53 193 2.0 3.0 0.00 0.00 0.00 97 1009.1
20260505054715 53 147 0.0 3.0 0.00 0.00 0.00 97 1009.0
20260505053952 53 115 0.0 3.0 0.00 0.00 0.00 97 1009.1
20260505053455 53 14 0.0 3.0 0.00 0.00 0.00 97 1009.1
20260505053207 53 215 1.0 3.0 0.00 0.00 0.00 97 1009.1
20260505052714 53 107 1.0 3.0 0.00 0.00 0.00 97 1008.8
20260505051949 53 159 1.0 4.0 0.00 0.00 0.00 97 1008.9
20260505051711 53 137 2.0 4.0 0.00 0.00 0.00 96 1009.0
20260505050948 53 181 3.0 4.0 0.00 0.00 0.00 96 1009.0
20260505050449 53 173 2.0 3.0 0.00 0.00 0.00 96 1008.8
20260505041443 53 203 0.0 4.0 0.00 0.00 0.00 95 1009.0
20260505041205 52 147 0.0 4.0 0.00 0.00 0.00 95 1008.9
20260505040443 53 164 2.0 4.0 0.00 0.00 0.00 95 1008.9
20260505040204 52 302 0.0 4.0 0.00 0.00 0.00 95 1008.9
20260505035441 52 38 1.0 5.0 0.00 0.00 0.00 95 1008.9
20260505035206 52 91 3.0 5.0 0.00 0.00 0.00 95 1008.7
20260505034700 52 146 4.0 6.0 0.00 0.00 0.00 95 1008.8
20260505033938 52 211 2.0 6.0 0.00 0.00 0.00 94 1008.8
20260505033442 52 220 3.0 4.0 0.00 0.00 0.00 94 1008.8